www.pogodaiklimat.ru

Погода и климат >> Архив погоды >> Португалия >> Коимбра


ПОГОДА в Коимбре

  • Прогноз погоды в Коимбре
  • Монитор погоды в Коимбре

АРХИВ ПОГОДЫ в Коимбре

Время (UTC), дата Ветер
(напр.,м/с)
 
Видим.   Явления Облачность Т
(С)
Тd
(С)
f
(%)
Тe
(С)
Тes
(С)
Комфортность P
(гПа)
Po
(гПа)
Тmin
(С)
Tmax
(С)
R
(мм)
R24
(мм)
S
(см)
10 13.09 СВ 4-6
{9}
н/о н/о +27.7 +12.3 38 +29 +29 жарко 1021.8 1002.2
11 13.09 СВ 4-8
{8}
н/о н/о +29.1 +12.8 37 +30 +30 жарко 1021.2 1001.8
12 13.09 СВ 4-6
{8}
н/о н/о +31.5 +13.4 33 +33 +33 жарко 1020.2 1000.9
13 13.09 -7
{7}
н/о н/о +32.5 +11.9 28 1019.3 1000.1
14 13.09 С 1
{5}
н/о н/о +34.1 +12.2 27 +34 +34 очень
жарко
1018.5 999.4
15 13.09 С 3
{7}
н/о н/о +33.2 +10.8 25 +33 +33 жарко 1017.6 998.5
16 13.09 С 2
{6}
н/о н/о +31.3 +13.3 33 +32 +32 жарко 1017.7 998.4
17 13.09 СЗ 6-10
{10}
н/о н/о +29.9 +13.1 36 +31 +31 жарко 1018.0 998.6
18 13.09 З 4-6
{9}
н/о н/о +28.0 +12.5 38 +29 +29 жарко 1018.7 999.2 +34.8
19 13.09 С 1
{5}
н/о н/о +25.9 +11.1 40 +27 +27 жарко 1019.1 999.5
20 13.09 Ю 2 н/о н/о +26.1 +11.5 40 +27 +27 жарко 1020.4 1000.7
21 13.09 ЮВ 2
{5}
н/о н/о +25.5 +11.5 42 +27 +27 жарко 1020.5 1000.9
22 13.09 С 1
{5}
н/о н/о +24.2 +11.4 45 +26 +26 жарко 1020.8 1001.1
23 13.09 В 1 н/о н/о +23.1 +11.7 49 +26 +26 жарко 1021.2 1001.4
00 14.09 С 2
{5}
н/о н/о +22.4 +11.8 51 +25 +25 комфорт 1021.1 1001.2
01 14.09
{5}
н/о н/о +22.4 +13.1 56 1021.0 1001.1
02 14.09 В 4-8
{9}
н/о н/о +22.4 +13.1 56 +25 +25 комфорт 1020.5 1000.7
03 14.09 С 3-6
{11}
н/о н/о +22.1 +13.6 59 +25 +25 комфорт 1020.2 1000.3
04 14.09 штиль 0
{6}
н/о н/о +20.1 +12.7 62 +22 +22 комфорт 1020.4 1000.4
05 14.09 СВ 1 н/о н/о +18.4 +12.6 69 +20 +20 1020.5 1000.3
06 14.09 С 1 н/о н/о +19.0 +12.8 67 +21 +21 комфорт 1020.6 1000.5 +18.2
07 14.09 СВ 4-6
{6}
н/о н/о +19.8 +12.9 64 +22 +22 комфорт 1020.8 1000.7
08 14.09 СВ 5-8
{8}
н/о н/о +21.5 +13.1 59 +24 +24 комфорт 1020.8 1000.8
09 14.09 С 2
{7}
н/о н/о +24.5 +13.6 51 +27 +27 жарко 1020.8 1001.0
10 14.09 СЗ 2
{5}
н/о н/о +25.7 +14.5 50 +28 +28 жарко 1020.4 1000.8
11 14.09 С 2 н/о н/о +28.0 +14.4 43 +30 +30 жарко 1019.9 1000.4
12 14.09 С 3-6
{6}
н/о н/о +28.5 +14.1 41 +30 +30 жарко 1019.3 999.9
13 14.09
{6}
н/о н/о +29.8 +13.9 38 1018.3 999.0
14 14.09
{6}
н/о н/о +30.4 +13.0 34 1017.5 998.2
15 14.09 С 2
{6}
н/о н/о +31.0 +13.2 34 +32 +32 жарко 1016.9 997.7
16 14.09 С 4-7
{8}
н/о н/о +27.6 +14.8 46 +30 +30 жарко 1017.3 997.9
17 14.09 ЮЗ 2
{14}
н/о н/о +19.3 +19.1 99 +22 +22 комфорт 1019.4 999.3 19
18 14.09 ЮЗ 2 н/о н/о +20.6 +17.1 80 +25 +25 комфорт 1018.8 998.9 +31.4 19
19 14.09 СВ 2 н/о н/о +19.8 +18.4 92 +23 +23 комфорт 1019.4 999.4
20 14.09 СВ 2 н/о н/о +20.0 +19.1 95 +24 +24 комфорт 1019.9 999.8
21 14.09 С 1 н/о н/о +20.7 +17.3 81 +25 +25 комфорт 1019.6 999.6 19
22 14.09 штиль 0 н/о н/о +20.0 +17.9 88 +23 +23 комфорт 1019.6 999.6
23 14.09 ЮВ 2 н/о н/о +21.1 +16.1 73 +24 +24 комфорт 1019.2 999.3
00 15.09 В 2 н/о н/о +18.8 +17.2 90 +21 +21 комфорт 1019.4 999.3
01 15.09 н/о н/о +19.4 +15.9 80 1019.0 999.0
02 15.09 В 1 н/о н/о +19.4 +15.9 80 +22 +22 комфорт 1018.8 998.8
03 15.09 В 2 н/о н/о +18.4 +16.1 86 +20 +20 1018.7 998.6
04 15.09 В 1 н/о н/о +18.7 +15.5 82 +21 +21 комфорт 1018.5 998.4
05 15.09 С 1 н/о н/о +19.0 +15.1 78 +21 +21 комфорт 1018.4 998.4
06 15.09 С 1 н/о н/о +18.1 +15.7 86 +19 +19 1018.8 998.7 +17.8
07 15.09 В 1 н/о н/о +18.3 +16.1 87 +20 +20 1019.2 999.1
08 15.09 СВ 3 н/о н/о +20.3 +16.4 78 +24 +24 комфорт 1019.5 999.5
09 15.09 СВ 2
{5}
н/о н/о +22.8 +16.0 65 +27 +27 душно 1019.6 999.8
10 15.09 В 2 н/о н/о +25.3 +16.9 60 +29 +29 душно 1019.2 999.6
11 15.09 н/о н/о +26.5 +15.2 50 1018.6 999.0
12 15.09 С 2-6
{6}
н/о н/о +27.7 +15.4 47 +31 +31 душно 1018.1 998.6
13 15.09 С 2-6
{6}
н/о н/о +28.7 +15.5 45 +32 +32 душно 1017.7 998.3
14 15.09 -6
{6}
н/о н/о +29.4 +14.3 40 1017.1 997.8
15 15.09 СЗ 4-7
{7}
н/о н/о +28.7 +16.1 46 +32 +32 душно 1016.8 997.4
16 15.09 СЗ 4-7
{8}
н/о н/о +26.0 +15.7 53 +29 +29 душно 1017.0 997.5
17 15.09 СЗ 2
{6}
н/о н/о +23.5 +16.7 66 +27 +27 душно 1017.2 997.5 0.6
18 15.09 С 2 н/о н/о +24.8 +15.8 57 +28 +28 жарко 1017.1 997.5 +30.0 0.6
19 15.09 С 2 н/о н/о +22.9 +15.9 65 +27 +27 душно 1017.6 997.8
20 15.09 С 2 н/о н/о +21.8 +14.4 63 +25 +25 комфорт 1018.2 998.3
21 15.09 штиль 0 н/о н/о +21.0 +15.1 69 +24 +24 комфорт 1018.5 998.6 0.6
22 15.09 ЮЗ 1 н/о н/о +20.1 +15.2 73 +24 +24 комфорт 1018.5 998.5
23 15.09 З 2 н/о н/о +19.3 +14.9 76 +21 +21 комфорт 1018.7 998.7
00 16.09 ЮЗ 1 н/о н/о +18.4 +14.7 79 +20 +20 1018.7 998.6
01 16.09 ЮЗ 2 н/о н/о +18.2 +14.7 80 +19 +19 1018.8 998.7
02 16.09 ЮЗ 2 н/о н/о +17.5 +14.5 83 +18 +18 1018.3 998.1
03 16.09 ЮЗ 1 н/о н/о +16.5 +14.8 90 +17 +17 1018.1 997.9
04 16.09 Ю 2 н/о н/о +16.2 +15.0 93 +16 +16 1018.0 997.8
05 16.09 ЮЗ 1 н/о н/о +16.2 +15.5 96 +17 +17 1017.9 997.7
06 16.09 З 1 н/о н/о +15.6 +15.4 99 +16 +16 1018.1 997.9 +15.6
07 16.09 н/о н/о +15.7 +15.7 100 1018.4 998.2
08 16.09 ЮЗ 1 н/о н/о +16.2 +16.2 100 +17 +17 1018.9 998.6
09 16.09 ЮЗ 1 н/о н/о +18.4 +16.4 88 +20 +20 1019.4 999.3
10 16.09 С 1 н/о н/о +22.9 +17.7 73 +28 +28 душно 1019.0 999.2
11 16.09 С 2 н/о н/о +24.4 +17.1 64 +28 +28 душно 1018.4 998.7
12 16.09 З 2 н/о н/о +26.5 +18.0 60 +31 +31 душно 1017.6 998.1
13 16.09 СЗ 3
{7}
н/о н/о +27.4 +18.1 57 +32 +32 очень
душно
1017.0 997.5
14 16.09 З 4-7
{7}
н/о н/о +27.7 +17.7 54 +32 +32 очень
душно
1016.7 997.2
15 16.09 З 4-7
{8}
н/о н/о +26.1 +17.9 61 +31 +31 очень
душно
1016.6 997.0
16 16.09 СЗ 3
{6}
н/о н/о +26.4 +18.3 61 +31 +31 душно 1016.3 996.8
17 16.09
{5}
н/о н/о +24.5 +17.5 65 1016.4 996.8
18 16.09 З 2
{5}
н/о н/о +22.2 +17.3 74 +27 +27 душно 1016.6 996.8 +29.1
19 16.09 З 2 н/о н/о +19.6 +17.1 85 +22 +22 комфорт 1017.1 997.1
20 16.09 З 3 н/о н/о +17.3 +16.4 94 +17 +17 1018.1 998.0
21 16.09 З 1 н/о н/о +16.2 +16.2 100 +17 +17 1018.4 998.2
22 16.09 штиль 0 н/о н/о +15.6 +15.6 100 +15 +15 1018.3 998.0
23 16.09 штиль 0 н/о н/о +15.7 +15.7 100 +15 +15 1018.2 997.9
00 17.09 С 1 н/о н/о +15.6 +15.6 100 +16 +16 1017.6 997.3
01 17.09 н/о н/о +15.4 +15.4 100 1017.7 997.4
02 17.09 СВ 2 н/о н/о +15.1 +15.1 100 +15 +15 1016.6 996.3
03 17.09 В 1 н/о н/о +15.0 +15.0 100 +15 +15 1016.4 996.1
04 17.09 штиль 0 н/о н/о +14.9 +14.9 100 +15 +15 1016.1 995.8
05 17.09 н/о н/о +15.7 +15.7 100 1015.9 995.7
06 17.09 ЮЗ 2 н/о н/о +14.9 +14.9 100 +14 +14 1016.4 996.1 +14.7
07 17.09 Ю 1 н/о н/о +15.3 +15.3 100 +16 +16 1016.9 996.6
08 17.09 ЮЗ 1 н/о н/о +16.3 +16.3 100 +17 +17 1017.1 996.9
09 17.09 С 1 н/о н/о +18.6 +17.2 92 +21 +21 комфорт 1017.1 997.1
10 17.09 н/о н/о +21.6 +17.5 77 1016.8 997.0
11 17.09
{5}
н/о н/о +22.5 +17.2 72 1016.6 996.8
12 17.09 С 3-6
{6}
н/о н/о +25.4 +17.3 61 +29 +29 душно 1015.8 996.3
13 17.09 СЗ 3-6
{6}
н/о н/о +25.6 +17.4 61 +30 +30 душно 1015.3 995.8
14 17.09 З 4-6
{7}
н/о н/о +26.6 +17.2 56 +31 +31 душно 1014.7 995.2
15 17.09 СЗ 5 н/о н/о +26.0 +17.1 58 +30 +30 душно 1014.6 995.1
16 17.09 З 4-7
{8}
н/о н/о +25.2 +16.2 57 +29 +29 душно 1014.8 995.2
17 17.09 СЗ 4-6
{7}
н/о н/о +23.7 +16.1 62 +27 +27 жарко 1015.1 995.4
18 17.09 СЗ 3
{6}
н/о н/о +22.9 +14.8 60 +27 +27 душно 1015.0 995.3 +27.3
19 17.09 З 2 н/о н/о +20.2 +14.7 71 +23 +23 комфорт 1015.1 995.2
20 17.09 З 2 н/о н/о +18.3 +15.4 83 +19 +19 1016.3 996.2
21 17.09 ЮЗ 1 н/о н/о +16.4 +15.6 95 +17 +17 1016.7 996.6
22 17.09 штиль 0 н/о н/о +15.8 +15.7 99 +16 +16 1016.3 996.1
23 17.09 СЗ 1 н/о н/о +15.1 +15.1 100 +16 +16 1016.1 995.8
00 18.09 ЮЗ 2 н/о н/о +14.7 +14.7 100 +14 +14 1015.8 995.5
01 18.09 ЮЗ 2 н/о н/о +14.3 +14.3 100 +14 +14 1015.9 995.5
02 18.09 З 1 н/о н/о +14.5 +14.5 100 +15 +15 1016.0 995.7
03 18.09 С 1 н/о н/о +14.5 +14.5 100 +15 +15 1016.0 995.7
04 18.09 СЗ 1 н/о н/о +14.6 +14.6 100 +15 +15 1015.8 995.5 0.1
05 18.09 СЗ 1 н/о н/о +14.5 +14.5 100 +15 +15 1016.0 995.7
06 18.09 штиль 0 н/о н/о +14.4 +14.4 100 +14 +14 1016.3 996.0 +14.2 0.2
07 18.09 штиль 0 н/о н/о +14.5 +14.5 100 +14 +14 1016.8 996.5
08 18.09 н/о н/о +14.6 +14.6 100 1017.2 996.9 0.1
09 18.09 штиль 0 н/о н/о +15.7 +15.7 100 +15 +15 1017.6 997.3
10 18.09 н/о н/о +16.6 +16.6 100 1017.6 997.4
11 18.09 н/о н/о +18.6 +16.8 89 1017.2 997.1
12 18.09 С 2
{5}
н/о н/о +22.3 +16.4 69 +27 +27 душно 1016.7 996.9 0.1
13 18.09 С 3-6
{6}
н/о н/о +24.4 +15.8 59 +28 +28 душно 1016.3 996.7
14 18.09 З 3
{6}
н/о н/о +26.3 +16.4 54 +30 +30 душно 1015.8 996.3
15 18.09 СЗ 4-6
{6}
н/о н/о +26.1 +16.5 55 +30 +30 душно 1015.7 996.1
16 18.09 З 4-7
{7}
н/о н/о +23.4 +15.9 63 +28 +28 душно 1016.0 996.3
17 18.09 З 4
{7}
н/о н/о +20.4 +15.8 75 +23 +23 комфорт 1016.5 996.6
18 18.09 З 3
{5}
н/о н/о +18.4 +15.7 84 +19 +19 1017.0 996.9 +26.7 0.1
19 18.09 З 2 н/о н/о +16.8 +15.9 94 +17 +17 1017.6 997.5
20 18.09 З 2 н/о н/о +16.4 +15.6 95 +16 +16 1018.2 998.0
21 18.09 З 1 н/о н/о +16.4 +15.6 95 +17 +17 1018.4 998.2
22 18.09 З 1 н/о н/о +16.3 +15.7 96 +17 +17 1018.6 998.4
23 18.09 З 1 н/о н/о +15.6 +15.4 99 +16 +16 1018.4 998.1
00 19.09 СЗ 1 н/о н/о +15.5 +15.4 99 +16 +16 1018.2 997.9
01 19.09 З 1 н/о н/о +15.4 +15.3 99 +16 +16 1018.2 997.9
02 19.09 штиль 0 н/о н/о +15.2 +15.0 99 +15 +15 1017.8 997.5
03 19.09 С 1 н/о н/о +15.1 +14.8 98 +16 +16 1017.4 997.1
04 19.09 н/о н/о +15.0 +14.9 99 1017.1 996.8
05 19.09 н/о н/о +15.1 +15.1 100 1017.1 996.8
06 19.09 штиль 0 н/о н/о +15.0 +15.0 100 +15 +15 1017.2 996.9 +14.9
07 19.09 С 1 н/о н/о +15.2 +15.2 100 +16 +16 1017.5 997.3
08 19.09 С 1 н/о н/о +15.6 +15.2 97 +16 +16 1017.8 997.6
09 19.09 С 1 н/о н/о +16.2 +14.9 92 +17 +17 1018.0 997.7
10 19.09 ЮЗ 1 н/о н/о +17.2 +15.1 87 +18 +18 1018.1 997.9
11 19.09 С 2 н/о н/о +19.4 +16.3 82 +22 +22 комфорт 1017.7 997.7
12 19.09 З 3
{5}
н/о н/о +20.0 +16.1 78 +23 +23 комфорт 1017.5 997.5
13 19.09
{5}
н/о н/о +21.1 +16.0 73 1016.9 997.0
14 19.09
{6}
н/о н/о +21.3 +15.8 71 1016.3 996.5
15 19.09 З 4
{6}
н/о н/о +21.6 +15.5 68 +25 +25 комфорт 1016.1 996.3
16 19.09 СЗ 4-6
{7}
н/о н/о +21.7 +16.0 70 +25 +25 комфорт 1015.7 995.9
17 19.09 З 4-6
{6}
н/о н/о +20.0 +15.5 75 +22 +22 комфорт 1016.1 996.2
18 19.09 СЗ 3
{5}
н/о н/о +18.2 +15.4 84 +19 +19 1016.3 996.2 +23.5
19 19.09 СЗ 2 н/о н/о +17.7 +15.4 86 +18 +18 1016.6 996.5
20 19.09 С 1 н/о н/о +17.5 +15.2 86 +19 +19 1016.9 996.8
21 19.09 С 1 н/о н/о +17.2 +15.1 87 +18 +18 1017.2 997.1
22 19.09 С 1 н/о н/о +17.0 +15.4 90 +18 +18 1016.6 996.5
23 19.09 З 1 н/о н/о +16.8 +15.1 90 +18 +18 1016.2 996.1
00 20.09 З 1 н/о н/о +16.8 +15.2 90 +18 +18 1016.0 995.9
01 20.09 н/о н/о +16.4 +15.2 93 1015.8 995.6
02 20.09 СВ 2 н/о н/о +16.2 +15.4 95 +16 +16 1015.1 994.9
03 20.09 СВ 1 н/о н/о +16.2 +15.5 96 +17 +17 1014.5 994.3
04 20.09 З 1 н/о н/о +16.1 +15.4 96 +17 +17 1014.5 994.4
05 20.09 штиль 0 н/о н/о +16.2 +15.6 96 +16 +16 1014.0 993.9
06 20.09 ЮЗ 1 н/о н/о +15.9 +15.3 96 +17 +17 1014.2 994.0 +15.9
07 20.09 Ю 1 н/о н/о +16.2 +15.7 97 +17 +17 1014.4 994.3
08 20.09 С 1 н/о н/о +16.9 +15.8 93 +18 +18 1014.8 994.7
09 20.09 н/о н/о +17.2 +16.7 97 1015.2 995.1 0.3
10 20.09 н/о н/о +18.6 +17.4 93 1014.8 994.8 0.2
11 20.09 н/о н/о +20.5 +16.3 77 1014.4 994.6

 

Местоположение метеостанции Коимбра (Португалия): широта 40.15 долгота -8.47 высота над уровнем моря 179 м.

В архиве по умолчанию представлена погода в Коимбре за последнюю неделю. Архивные данные за месяц целиком и за предыдущие месяцы, начиная с января 2011 года, Вы можете получить, выбрав интересующий диапазон дат из раскрывающегося списка и нажав кнопку "Ввод!".


*Определитесь, кто Вы:
робот инопланетянин человек

Внимание! Время в таблицах - всемирное. Для получения местного времени необходимо прибавить поправку, которая равна 0 ч.

Смотрите также архив погоды в соседних городах и на ближайших метеорологических станциях:

Погода в Монте-Реале (Португалия) (50 км)
Погода в Визеу (Португалия) (81 км)
Погода в Обсерватории Penhas Douradas (Португалия) (84 км)
Погода в Оваре (Португалия) (87 км)
Погода в Кастело Бранко (Португалия) (92 км)
Погода в Кабо Карвоейру (Португалия) (119 км)
Погода в Порту (Португалия) (121 км)
Погода в Порталегре (Португалия) (132 км)
Погода в Валенсия-де-Алькантаре (Испания) (132 км)
Погода в Вила-Реале (Португалия) (140 км)

Пояснения к столбцам:

Ветер - указаны скорость ветра в м/с - средняя за 10 мин, порывы в срок и между сроками (в фигурных скобках) и направление, откуда дует ветер: С - северный, СВ - северо-восточный, В - восточный, ЮВ - юго-восточный, Ю - южный, ЮЗ - юго-западный, З - западный, СЗ - северо-западный.
Видимость - горизонтальная дальность видимости в метрах или километрах. При видимости от 1 до 10 км при отсутствии осадков обычно наблюдается дымка, при ухудшении видимости до 1 км и менее - туман. В сухую погоду видимость может ухудшаться дымом, пылью или мглою.
Явления - указаны атмосферные явления, наблюдавшиеся в срок или в последний час перед сроком; фигурными скобками обозначены явления, наблюдавшиеся между сроками (за 1-3 часа до срока); квадратными скобками обозначены град или гололедные отложения с указанием их диаметра в мм.
Облачность - указаны через наклонную черту общая и нижняя облачность в баллах и высота нижней границы облаков в метрах; квадратными скобками обозначены формы облаков: Ci - перистые, Cs - перисто-слоистые, Cc - перисто-кучевые, Ac - высококучевые, As - высокослоистые, Sc - слоисто-кучевые, Ns - слоисто-дождевые, Cu - кучевые, Cb - кучево-дождевые. Подробнее классификацию облаков см. в Атласе облаков (PDF).
T - Температура воздуха - температура, измеренная на высоте 2 м над землей.
Td - Температура точки росы - температура, при понижении до которой содержащийся в воздухе водяной пар достигнет насыщения.
f - Относительная влажность воздуха - влажноcть воздуха, измеренная на высоте 2 м над землей.
Te - Эффективная температура - температура, которую ощущает одетый по сезону человек в тени. Характеристика душности погоды. При расчете учитывается влияние влажности воздуха и скорости ветра на теплоощущения человека.
Tes - Эффективная температура на солнце - температура, которую ощущает человек, с поправкой на солнечный нагрев. Характеристика знойности погоды. Зависит от высоты солнца над горизонтом, облачности и скорости ветра. Ночью, в пасмурную погоду, а также при ветре 12 м/с и более поправка равна нулю.
P - Атмосферное давление - приведенное к уровню моря атмосферное давление.
Po - Атмосферное давление - измеренное на уровне метеостанции атмосферное давление.
Tmin - Минимальная температура - минимум температуры воздуха на высоте 2 м над землей.
Tmax - Максимальная температура - максимум температуры воздуха на высоте 2 м над землей.
R - Количество осадков - Количество выпавших осадков за период времени, мм. При наведении курсора мыши на число - период времени, за который выпало указанное количество осадков.
R24 - Количество осадков - Количество выпавших осадков за 24 часа, мм.
S - Снежный покров - Высота снежного покрова, см. При наведении курсора мыши на число - состояние снежного покрова и степень покрытия местности в баллах.